Weather History for KDAA - October, 2013

Change the Weather History Date:

Friday, October 25, 2013

  Actual Average Record
Temperature  
Mean Temperature 42 °F -  
Max Temperature 55 °F 64 °F 78 °F (2001)
Min Temperature 28 °F 41 °F 28 °F (2013)
Degree Days  
Heating Degree Days 24    
Moisture  
Dew Point 30 °F    
Average Humidity 67    
Maximum Humidity 99    
Minimum Humidity 37    
Precipitation  
Precipitation 0.00 in - - ()
Sea Level Pressure  
Sea Level Pressure 30.27 in    
Wind  
Wind Speed 5 mph (WNW)    
Max Wind Speed 18 mph    
Max Gust Speed 25 mph    
Visibility 10 miles    
Events      
Averages and records for this station are not official NWS values.
T = Trace of Precipitation, MM = Missing Value Source: NWS Daily Summary

Daily Weather History Graph

Daily Weather History Graph

Search for Another Location

Airport or City:

Trip Planner

Search our weather history database for the weather conditions in past years. The results will help you decide how hot, cold, wet, or windy it might be!

Date:

Astronomy

Oct. 25, 2013 Rise Set
Actual Time 7:28 AM EDT 6:16 PM EDT
Civil Twilight 7:01 AM EDT 6:43 PM EDT
Nautical Twilight 6:30 AM EDT 7:14 PM EDT
Astronomical Twilight 5:59 AM EDT 7:45 PM EDT
Moon 11:35 PM EDT (10/25) 1:06 PM EDT (10/25)
Length of Visible Light 11h 42m
Length of Day
10h 48m
Waning Gibbous, 62% of the Moon is Illuminated
Oct 25
Waning Gibbous
Oct 26
Last Quarter
Nov 3
New
Nov 10
First Quarter
Nov 17
Full

Hourly Weather History & Observations

Time (EDT) Temp. Windchill Dew Point Humidity Pressure Visibility Wind Dir Wind Speed Gust Speed Precip Events Conditions
12:58 AM 33.3 °F - 31.8 °F 94% 30.17 in 10.0 mi Calm Calm - N/A   Clear
1:58 AM 32.0 °F 28.7 °F 31.3 °F 97% 30.18 in 10.0 mi ESE 3.5 mph - N/A   Clear
2:58 AM 31.5 °F - 31.1 °F 99% 30.19 in 10.0 mi Calm Calm - N/A   Clear
3:58 AM 29.8 °F - 29.3 °F 98% 30.20 in 10.0 mi Calm Calm - N/A   Clear
4:58 AM 29.7 °F - 29.5 °F 99% 30.21 in 10.0 mi Calm Calm - N/A   Clear
5:58 AM 28.8 °F - 28.6 °F 99% 30.23 in 10.0 mi Calm Calm - N/A   Clear
6:58 AM 28.4 °F - 28.0 °F 99% 30.25 in 10.0 mi South 2.3 mph - N/A   Clear
7:58 AM 28.9 °F 25.2 °F 28.6 °F 99% 30.27 in 10.0 mi ESE 3.5 mph - N/A   Clear
8:58 AM 34.9 °F - 34.7 °F 99% 30.30 in 10.0 mi Calm Calm - N/A   Clear
9:58 AM 45.7 °F 39.8 °F 30.0 °F 54% 30.30 in 10.0 mi NW 12.7 mph 16.1 mph N/A   Clear
10:58 AM 49.3 °F - 29.1 °F 46% 30.29 in 10.0 mi NW 8.1 mph 17.3 mph N/A   Clear
11:58 AM 52.2 °F - 29.1 °F 41% 30.29 in 10.0 mi NW 13.8 mph 21.9 mph N/A   Clear
12:58 PM 53.8 °F - 30.0 °F 40% 30.29 in 10.0 mi NW 9.2 mph 19.6 mph N/A   Clear
1:58 PM 55.0 °F - 29.8 °F 38% 30.27 in 10.0 mi West 15.0 mph - N/A   Partly Cloudy
2:58 PM 55.6 °F - 29.5 °F 37% 30.26 in 10.0 mi WNW 18.4 mph 25.3 mph N/A   Partly Cloudy
3:39 PM 55.4 °F - 30.2 °F 38% 30.26 in 10.0 mi NW 12.7 mph 23.0 mph N/A   Clear
3:58 PM 55.6 °F - 29.5 °F 37% 30.27 in 10.0 mi NW 18.4 mph - N/A   Clear
4:58 PM 54.0 °F - 29.1 °F 39% 30.28 in 10.0 mi WNW 13.8 mph 19.6 mph N/A   Clear
5:58 PM 51.4 °F - 29.5 °F 43% 30.30 in 10.0 mi WNW 10.4 mph - N/A   Clear
6:58 PM 47.5 °F - 29.5 °F 50% 30.31 in 10.0 mi WNW 8.1 mph - N/A   Clear
7:58 PM 43.7 °F 41.1 °F 31.5 °F 62% 30.32 in 10.0 mi NW 4.6 mph - N/A   Clear
8:58 PM 43.9 °F 38.8 °F 29.7 °F 57% 30.33 in 10.0 mi NW 9.2 mph - N/A   Clear
9:58 PM 42.4 °F - 28.0 °F 57% 30.35 in 10.0 mi Variable 2.3 mph - N/A   Clear
10:58 PM 37.0 °F - 30.7 °F 78% 30.36 in 10.0 mi Calm Calm - N/A   Clear
11:58 PM 35.1 °F - 31.6 °F 87% 30.34 in 10.0 mi NW 1.2 mph - N/A   Clear